Time,TemperatureF,DewpointF,PressureIn,WindDirection,WindDirectionDegrees,WindSpeedMPH,WindSpeedGustMPH,Humidity,HourlyPrecipIn,Conditions,Clouds,dailyrainin,SoftwareType,DateUTC
2013-04-01 09:47:00,50.3,47.8,30.07,SSE,164,4.0,0.0,91,0.00,,,0.00,WeatherTracker,2013-04-01 16:47:00,
2013-04-01 09:52:00,50.3,47.8,30.06,SSW,198,7.0,9.0,91,0.00,,,0.00,WeatherTracker,2013-04-01 16:52:00,
2013-04-01 09:57:00,50.4,47.9,30.07,SSW,195,3.0,9.0,91,0.00,,,0.00,WeatherTracker,2013-04-01 16:57:00,
2013-04-01 10:02:00,50.4,47.9,30.07,South,182,3.0,11.0,91,0.00,,,0.00,WeatherTracker,2013-04-01 17:02:00,
2013-04-01 10:07:00,50.5,48.0,30.07,SSE,168,5.0,11.0,91,0.00,,,0.00,WeatherTracker,2013-04-01 17:07:00,
2013-04-01 10:12:00,50.6,48.1,30.07,South,184,3.0,10.0,91,0.00,,,0.00,WeatherTracker,2013-04-01 17:12:00,
2013-04-01 10:17:00,50.6,48.1,30.07,SSE,158,0.0,10.0,91,0.00,,,0.00,WeatherTracker,2013-04-01 17:17:00,
2013-04-01 10:22:00,50.7,47.9,30.07,South,175,5.0,10.0,90,0.00,,,0.00,WeatherTracker,2013-04-01 17:22:00,
2013-04-01 10:27:00,50.7,47.9,30.08,South,177,5.0,10.0,90,0.00,,,0.00,WeatherTracker,2013-04-01 17:27:00,
2013-04-01 10:32:00,50.7,47.9,30.07,South,187,2.0,8.0,90,0.00,,,0.00,WeatherTracker,2013-04-01 17:32:00,
2013-04-01 10:37:00,50.8,48.0,30.08,SW,217,3.0,11.0,90,0.00,,,0.00,WeatherTracker,2013-04-01 17:37:00,
2013-04-01 10:43:00,50.8,48.0,30.08,SW,230,3.0,11.0,90,0.00,,,0.00,WeatherTracker,2013-04-01 17:43:00,
2013-04-01 10:47:00,50.8,48.0,30.08,SSW,207,0.0,8.0,90,0.00,,,0.00,WeatherTracker,2013-04-01 17:47:00,
2013-04-01 10:53:00,50.9,48.1,30.08,South,173,7.0,7.0,90,0.00,,,0.00,WeatherTracker,2013-04-01 17:53:00,
2013-04-01 10:58:00,50.9,48.1,30.08,South,190,4.0,9.0,90,0.00,,,0.00,WeatherTracker,2013-04-01 17:58:00,
2013-04-01 11:03:00,51.1,48.0,30.08,SSW,194,0.0,9.0,89,0.00,,,0.00,WeatherTracker,2013-04-01 18:03:00,
2013-04-01 11:08:00,51.3,48.2,30.08,SE,139,2.0,8.0,89,0.00,,,0.00,WeatherTracker,2013-04-01 18:08:00,
2013-04-01 11:13:00,51.5,48.1,30.08,South,186,6.0,7.0,88,0.00,,,0.00,WeatherTracker,2013-04-01 18:13:00,
2013-04-01 11:18:00,51.6,48.2,30.08,South,178,6.0,9.0,88,0.00,,,0.00,WeatherTracker,2013-04-01 18:18:00,
2013-04-01 11:23:00,51.7,48.3,30.08,SSW,213,2.0,9.0,88,0.00,,,0.00,WeatherTracker,2013-04-01 18:23:00,
2013-04-01 11:28:00,51.7,48.3,30.08,SW,223,1.0,9.0,88,0.00,,,0.00,WeatherTracker,2013-04-01 18:28:00,
2013-04-01 11:33:00,51.8,48.4,30.08,South,182,6.0,9.0,88,0.00,,,0.00,WeatherTracker,2013-04-01 18:33:00,
2013-04-01 11:38:00,51.9,48.2,30.08,SSW,192,4.0,7.0,87,0.00,,,0.00,WeatherTracker,2013-04-01 18:38:00,
2013-04-01 11:43:00,52.1,48.3,30.08,South,175,0.0,7.0,87,0.00,,,0.00,WeatherTracker,2013-04-01 18:43:00,
2013-04-01 11:48:00,52.2,48.4,30.08,SSW,211,2.0,8.0,87,0.00,,,0.00,WeatherTracker,2013-04-01 18:48:00,
2013-04-01 11:53:00,52.4,48.6,30.08,South,185,3.0,8.0,87,0.00,,,0.00,WeatherTracker,2013-04-01 18:53:00,
2013-04-01 11:58:00,52.4,48.6,30.08,South,189,4.0,7.0,87,0.00,,,0.00,WeatherTracker,2013-04-01 18:58:00,
2013-04-01 12:03:00,52.6,48.5,30.08,South,173,6.0,8.0,86,0.00,,,0.00,WeatherTracker,2013-04-01 19:03:00,
2013-04-01 12:08:00,52.7,48.6,30.08,SW,221,4.0,9.0,86,0.00,,,0.00,WeatherTracker,2013-04-01 19:08:00,
2013-04-01 12:14:00,53.1,49.0,30.09,SSW,199,0.0,9.0,86,0.00,,,0.00,WeatherTracker,2013-04-01 19:14:00,
2013-04-01 12:19:00,53.3,48.9,30.09,SSW,207,1.0,7.0,85,0.00,,,0.00,WeatherTracker,2013-04-01 19:19:00,
2013-04-01 12:24:00,53.6,48.9,30.08,South,183,3.0,7.0,84,0.00,,,0.00,WeatherTracker,2013-04-01 19:24:00,
2013-04-01 12:29:00,53.8,49.1,30.08,SE,130,2.0,7.0,84,0.00,,,0.00,WeatherTracker,2013-04-01 19:29:00,
2013-04-01 12:34:00,53.8,48.8,30.08,SSE,163,5.0,9.0,83,0.00,,,0.00,WeatherTracker,2013-04-01 19:34:00,
2013-04-01 12:39:00,54.0,49.0,30.08,South,182,4.0,9.0,83,0.00,,,0.00,WeatherTracker,2013-04-01 19:39:00,
2013-04-01 12:44:00,54.0,49.0,30.08,SSW,201,4.0,8.0,83,0.00,,,0.00,WeatherTracker,2013-04-01 19:44:00,
2013-04-01 12:49:00,54.1,49.1,30.08,SSW,211,0.0,8.0,83,0.00,,,0.00,WeatherTracker,2013-04-01 19:49:00,
2013-04-01 12:54:00,54.4,49.0,30.08,South,178,8.0,8.0,82,0.00,,,0.00,WeatherTracker,2013-04-01 19:54:00,
2013-04-01 12:59:00,54.4,48.7,30.08,SSW,197,5.0,9.0,81,0.00,,,0.00,WeatherTracker,2013-04-01 19:59:00,
2013-04-01 13:04:00,54.4,49.0,30.08,South,184,4.0,10.0,82,0.00,,,0.00,WeatherTracker,2013-04-01 20:04:00,
2013-04-01 13:09:00,54.6,49.2,30.08,South,188,7.0,10.0,82,0.00,,,0.00,WeatherTracker,2013-04-01 20:09:00,
2013-04-01 13:14:00,54.7,49.0,30.08,SSW,200,6.0,10.0,81,0.00,,,0.00,WeatherTracker,2013-04-01 20:14:00,
2013-04-01 13:19:00,54.7,49.0,30.08,South,185,3.0,10.0,81,0.00,,,0.00,WeatherTracker,2013-04-01 20:19:00,
2013-04-01 13:24:00,54.7,49.0,30.08,South,173,7.0,10.0,81,0.00,,,0.00,WeatherTracker,2013-04-01 20:24:00,
2013-04-01 13:29:00,54.8,49.1,30.08,SSW,211,5.0,12.0,81,0.00,,,0.00,WeatherTracker,2013-04-01 20:29:00,
2013-04-01 13:34:00,55.0,48.9,30.08,SSE,152,4.0,12.0,80,0.00,,,0.00,WeatherTracker,2013-04-01 20:34:00,
2013-04-01 13:39:00,55.0,48.9,30.08,SSE,163,9.0,10.0,80,0.00,,,0.00,WeatherTracker,2013-04-01 20:39:00,
2013-04-01 13:44:00,55.1,49.4,30.08,SSW,210,5.0,10.0,81,0.00,,,0.00,WeatherTracker,2013-04-01 20:44:00,
2013-04-01 13:49:00,55.2,49.1,30.08,SW,216,3.0,10.0,80,0.00,,,0.00,WeatherTracker,2013-04-01 20:49:00,
2013-04-01 13:54:00,55.7,49.3,30.08,South,173,6.0,11.0,79,0.00,,,0.00,WeatherTracker,2013-04-01 20:54:00,
2013-04-01 13:59:00,56.3,49.5,30.08,SSW,206,6.0,11.0,78,0.00,,,0.00,WeatherTracker,2013-04-01 20:59:00,
2013-04-01 14:04:00,56.6,49.1,30.08,South,184,2.0,10.0,76,0.00,,,0.00,WeatherTracker,2013-04-01 21:04:00,
2013-04-01 14:09:00,56.5,49.4,30.08,SSW,203,3.0,11.0,77,0.00,,,0.00,WeatherTracker,2013-04-01 21:09:00,
2013-04-01 14:15:00,56.6,49.5,30.08,SE,146,1.0,10.0,77,0.00,,,0.00,WeatherTracker,2013-04-01 21:15:00,
2013-04-01 14:20:00,56.8,49.3,30.08,SW,218,0.0,11.0,76,0.00,,,0.00,WeatherTracker,2013-04-01 21:20:00,
2013-04-01 14:25:00,56.6,49.1,30.08,SSW,207,1.0,11.0,76,0.00,,,0.00,WeatherTracker,2013-04-01 21:25:00,
2013-04-01 14:30:00,56.7,49.2,30.08,South,186,3.0,9.0,76,0.00,,,0.00,WeatherTracker,2013-04-01 21:30:00,
2013-04-01 14:35:00,56.6,49.1,30.08,SSW,198,2.0,10.0,76,0.00,,,0.00,WeatherTracker,2013-04-01 21:35:00,
2013-04-01 14:40:00,56.6,49.1,30.08,SSW,204,2.0,10.0,76,0.00,,,0.00,WeatherTracker,2013-04-01 21:40:00,
2013-04-01 14:45:00,56.9,49.4,30.08,South,178,2.0,9.0,76,0.00,,,0.00,WeatherTracker,2013-04-01 21:45:00,
2013-04-01 14:50:00,57.1,49.6,30.08,South,184,5.0,9.0,76,0.00,,,0.00,WeatherTracker,2013-04-01 21:50:00,
2013-04-01 14:55:00,57.3,49.1,30.08,South,186,7.0,9.0,74,0.00,,,0.00,WeatherTracker,2013-04-01 21:55:00,
2013-04-01 15:00:00,57.3,49.4,30.08,SSE,165,9.0,10.0,75,0.00,,,0.00,WeatherTracker,2013-04-01 22:00:00,
2013-04-01 15:05:00,57.5,49.3,30.08,SSW,201,3.0,10.0,74,0.00,,,0.00,WeatherTracker,2013-04-01 22:05:00,
2013-04-01 15:10:00,57.7,49.5,30.08,South,174,0.0,9.0,74,0.00,,,0.00,WeatherTracker,2013-04-01 22:10:00,
2013-04-01 15:15:00,57.6,49.0,30.08,South,172,2.0,11.0,73,0.00,,,0.00,WeatherTracker,2013-04-01 22:15:00,
2013-04-01 15:20:00,57.3,49.1,30.08,South,190,5.0,11.0,74,0.00,,,0.00,WeatherTracker,2013-04-01 22:20:00,
2013-04-01 15:25:00,57.1,48.9,30.08,South,182,2.0,10.0,74,0.00,,,0.00,WeatherTracker,2013-04-01 22:25:00,
2013-04-01 15:30:00,57.0,48.8,30.08,SW,219,2.0,10.0,74,0.00,,,0.00,WeatherTracker,2013-04-01 22:30:00,
2013-04-01 15:35:00,57.0,49.5,30.07,SSW,196,0.0,9.0,76,0.00,,,0.00,WeatherTracker,2013-04-01 22:35:00,
2013-04-01 15:40:00,57.1,49.3,30.07,SSW,197,0.0,9.0,75,0.00,,,0.00,WeatherTracker,2013-04-01 22:40:00,
2013-04-01 15:45:00,57.2,49.7,30.07,WNW,294,0.0,8.0,76,0.00,,,0.00,WeatherTracker,2013-04-01 22:45:00,
2013-04-01 15:50:00,57.5,49.6,30.08,WNW,289,1.0,8.0,75,0.00,,,0.00,WeatherTracker,2013-04-01 22:50:00,
2013-04-01 15:55:00,57.6,49.7,30.08,South,182,0.0,6.0,75,0.00,,,0.00,WeatherTracker,2013-04-01 22:55:00,
2013-04-01 16:00:00,58.1,50.2,30.08,SW,223,2.0,6.0,75,0.00,,,0.00,WeatherTracker,2013-04-01 23:00:00,
2013-04-01 16:05:00,58.6,50.0,30.08,SSW,204,2.0,6.0,73,0.00,,,0.00,WeatherTracker,2013-04-01 23:05:00,
2013-04-01 16:11:00,58.8,50.2,30.08,South,184,6.0,8.0,73,0.00,,,0.00,WeatherTracker,2013-04-01 23:11:00,
2013-04-01 16:16:00,58.8,50.2,30.08,SSW,192,0.0,8.0,73,0.00,,,0.00,WeatherTracker,2013-04-01 23:16:00,
2013-04-01 16:21:00,58.7,50.1,30.08,SSW,204,0.0,7.0,73,0.00,,,0.00,WeatherTracker,2013-04-01 23:21:00,
2013-04-01 16:26:00,58.8,50.2,30.07,SSW,213,1.0,7.0,73,0.00,,,0.00,WeatherTracker,2013-04-01 23:26:00,